Location: Wanzleben
(52.0609°N, 11.4408°E)
Time: 19:04:25
(UTC+00:00)

NOSS 3-4 (C) - Pass Details

Date: 18 September 2020
Orbit: 886 x 1326 km, 63.4° (Epoch: 19 October)

Event Time Altitude Azimuth Distance (km) Brightness Sun altitude
Exits shadow 22:41:39 42° 320° (NW) 1,352 4.4 -36.2°
Maximum altitude 22:42:14 43° 335° (NNW) 1,340 4.5 -36.3°
Drops below altitude 10° 22:48:33 10° 46° (NE) 2,863 6.3 -36.4°
Sets 22:51:29 0° 53° (NE) 3,889 7.0 -36.4°
